Weather in Kamenniki

Russia / Yaroslavl Oblast     58°09′07″N   38°39′40″E
В апреле 2022 года жителям России запретили посещать сайт meteo.paraplan.net по решению Генеральной прокуратуры. Аудитория сайта уменьшилась в 10 раз. Владельцы сайта не видят смысла в поддержке погодного сервера в таких условиях. Сайт будет закрыт в октябре.
temp.,
°C
wind,
m/s
gust,
m/s
humid.,
%
clouds,
%
prec.,
mm/h
press.,
hPa
HPBL,
m
29 september, thu
thu2900:00+4e81294100 4.3 1006587
03:00+4e71094100 5.5 1006501
06:00+4e6895100 0.9 1006427
09:00+4ese5695100 1.8 1007387
12:00+5se4595100 0.6 1008361
15:00+8ssw468499 0.7 1009623
18:00+9sse4587100 0.1 1011325
21:00+9sse4790100 0.1 1012277
30 september, fri
fri3000:00+9sse589186 0.0 1013254
03:00+9sse61191100 0.0 1013304
06:00+9s61288100 0.1 1013364
09:00+10s61285100 0.1 1014426
12:00+11sse3684100 0.3 1014278
15:00+11sse51094100 3.2 1014571
18:00+11s41097100 5.3 1014471
21:00+11sw4795100 6.1 1015424
1 october, sat
sat100:00+10wsw3593100 0.1 1015210
03:00+10wsw349197 0.1 1016162
06:00+9w2387100 0.0 1017150
09:00+10w228298 0.0 1017196
12:00+11wnw117945 0.0 1017245
15:00+11n117698 0.0 1016279
18:00+10nne3383100 0.0 101586
21:00+10ne3483100 0.1 1014138
2 october, sun
sun200:00+9ne5790100 1.1 1013251
03:00+9ne5993100 3.8 1012400
06:00+8ne71193100 4.1 1011530
09:00+8nne6990100 4.8 1011498
12:00+8nne6981100 0.0 1012512
15:00+10n367651 0.0 1012504
18:00+9nne47780 0.0 1013355
21:00+8ne57825 0.0 1014268
3 october, mon
mon300:00+6ene478543 0.0 1015202
03:00+6e478491 0.0 1015201
06:00+6ene6988100 0.0 1013330
09:00+7ene61186100 0.0 1013406
12:00+10e71083100 0.0 1012665
15:00+9ene101589100 0.8 1010590
18:00+10e101890100 0.9 1008661
21:00+11e91792100 1.1 1007546